Regional Weather Roundup
Issued by NWS Sioux Falls, SD

Home | Current Version | Previous Version | Text Only | Print | Product List | Glossary On
Versions: 1 2 3 4 5 6 7 8 9 10 11 12 13 14 15 16 17 18 19 20 21 22 23 24 25 26 27 28 29 30 31 32 33 34 35 36 37 38 39 40 41 42 43 44 45 46 47 48 49 50
716
ASUS43 KFSD 282310
RWRFSD

WEATHER ROUNDUP FOR SE SOUTH DAKOTA/SW MINNESOTA/NW IOWA
NATIONAL WEATHER SERVICE SIOUX FALLS SD
600 PM CDT WED JUN 28 2017

NOTE: "FAIR" INDICATES FEW OR NO CLOUDS BELOW 12,000 FEET WITH NO
SIGNIFICANT WEATHER AND OR OBSTRUCTIONS TO VISIBILITY.


SDZ038>040-050-052>070-290000-
SOUTHEAST SOUTH DAKOTA

CITY           SKY/WX    TMP DP  RH WIND       PRES   REMARKS
BROOKINGS      SUNNY     82  59  45 NW16G23   29.62S
CHAMBERLAIN    SUNNY     87  52  30 NW9       29.67S
HURON          SUNNY     87  44  22 NW17G25   29.62S
MADISON        FAIR      81  57  44 NW20G26   29.64R
MITCHELL       SUNNY     88  54  31 N14       29.63S
SIOUX FALLS    MOSUNNY   84  63  49 NW15G23   29.62R
WINNER         FAIR      90  48  23 NW14      29.69F
YANKTON        MOSUNNY   86  61  42 NW12      29.64F
$$

MNZ071-072-080-081-089-090-097-098-290000-
SOUTHWEST MINNESOTA

CITY           SKY/WX    TMP DP  RH WIND       PRES   REMARKS
FAIRMONT       SUNNY     83  66  56 W15G26    29.57F
JACKSON        MOSUNNY   81  64  57 W12G17    29.60F
LUVERNE        SUNNY     82  59  44 W13       29.62S
MARSHALL       MOSUNNY   83  64  52 NW17      29.57S
MONTEVIDEO     MOSUNNY   82  63  51 N16       29.57R
PIPESTONE      SUNNY     82  61  47 NW15      29.62S
REDWOOD FALLS  MOSUNNY   82  62  50 NW15G23   29.55S
TRACY          MOSUNNY   83  68  60 NW14G20   29.59S
WINDOM         SUNNY     84  63  48 W14       29.58F
WORTHINGTON    MOSUNNY   82  65  56 W16       29.62F
$$

IAZ001>003-012>014-020>022-031-032-NEZ013-014-SDZ071-290000-
NORTHWEST IOWA

CITY           SKY/WX    TMP DP  RH WIND       PRES   REMARKS
CHEROKEE       SUNNY     85  62  46 W9G18     29.61S
DENISON        SUNNY     86  68  54 W12G17    29.64R
ESTHERVILLE    SUNNY     82  65  56 W16       29.59F
LE MARS        MOSUNNY   86  63  45 W12G20    29.64R
ORANGE CITY    MOSUNNY   84  64  51 W14       29.63F
SHELDON        MOSUNNY   84  64  51 W15       29.61S
SIOUX CITY     SUNNY     87  66  49 NW10      29.62S
SPENCER        SUNNY     85  63  47 W15       29.61F
STORM LAKE     SUNNY     84  64  51 W15G22    29.62S
$$

ABBREVIATIONS USED IN REMARKS
   TC - TEMPERATURE IN CELSIUS
  WCI - WIND CHILL INDEX
   HX - HEAT INDEX
  VSB - VISIBILITY





USA.gov is the U.S. government's official web portal to all federal, state and local government web resources and services.